Location: Albany
(35.0170°S, 117.8920°E)
Time: 20:39:15
(UTC+08:00)

A-11 Canister half - Pass Details

Date: 22 January 2021
Orbit: 1525 x 1684 km, 47.3° (Epoch: 03 March)

Event Time Altitude Azimuth Distance (km) Brightness Sun altitude
Rises 02:19:48 0° 318° (NW) 4,927 - -28.3°
Reaches altitude 10° 02:22:59 10° 320° (NW) 3,942 - -28.0°
Exits shadow 02:29:39 47° 334° (NNW) 2,131 9.2 -27.2°
Maximum altitude 02:33:04 71° 41° (NE) 1,751 9.1 -26.8°
Drops below altitude 10° 02:42:59 10° 122° (ESE) 3,885 12.0 -25.6°
Sets 02:46:05 0° 124° (SE) 4,854 12.8 -25.2°
